Change the Weather History Date:

Monday, April 28, 2014

  Actual Average Record
Temperature  
Mean Temperature 64 °F 56 °F  
Max Temperature 73 °F 69 °F 78 °F (2004)
Min Temperature 54 °F 44 °F 33 °F (1997)
Degree Days  
Heating Degree Days 1 9  
Month to date heating degree days 325 391  
Since 1 July heating degree days 6329 5649  
Cooling Degree Days 0 1  
Month to date cooling degree days 3 2  
Year to date cooling degree days 3 3  
Growing Degree Days 14 (Base 50)    
Moisture  
Dew Point 58 °F    
Average Humidity 84    
Maximum Humidity 100    
Minimum Humidity 68    
Precipitation  
Precipitation 1.13 in 0.15 in 1.13 in (2014)
Month to date precipitation 3.70 3.46  
Year to date precipitation 7.84 10.28  
Sea Level Pressure  
Sea Level Pressure 29.56 in    
Wind  
Wind Speed 17 mph (SE)    
Max Wind Speed 33 mph    
Max Gust Speed 40 mph    
Visibility 6 miles    
Events Rain , Thunderstorm    
T = Trace of Precipitation, MM = Missing Value Source: NWS Daily Summary

Daily Weather History Graph

Daily Weather History Graph

Search for Another Location

Airport or City:

Trip Planner

Search our weather history database for the weather conditions in past years. The results will help you decide how hot, cold, wet, or windy it might be!

Date:

Astronomy

Apr. 28, 2014 Rise Set
Actual Time 5:56 AM CDT 7:44 PM CDT
Civil Twilight 5:27 AM CDT 8:14 PM CDT
Nautical Twilight 4:52 AM CDT 8:49 PM CDT
Astronomical Twilight 4:14 AM CDT 9:27 PM CDT
Moon 5:34 AM CDT (4/28) 7:22 PM CDT (4/28)
Length of Visible Light 14h 46m
Length of Day
13h 48m
Waning Crescent, 0% of the Moon is Illuminated
Apr 28
Waning Crescent
Apr 29
New
May 6
First Quarter
May 14
Full
May 21
Last Quarter

Hourly Weather History & Observations

Time (CDT) Temp. Dew Point Humidity Pressure Visibility Wind Dir Wind Speed Gust Speed Precip Events Conditions
12:42 AM 61.0 °F 55.9 °F 83% 29.73 in 9.0 mi SSE 8.1 mph - 0.01 in Rain Light Rain
1:53 AM 60.1 °F 57.0 °F 90% 29.68 in 6.0 mi ESE 11.5 mph - 0.08 in Rain Light Rain
2:26 AM 60.1 °F 59.0 °F 96% 29.66 in 5.0 mi ESE 12.7 mph - 0.05 in Rain Light Rain
3:24 AM 62.1 °F 61.0 °F 96% 29.62 in 4.0 mi SE 17.3 mph - 0.05 in Rain Light Rain
3:38 AM 62.1 °F 61.0 °F 96% 29.62 in 5.0 mi SE 16.1 mph - 0.07 in Rain Rain
3:53 AM 62.1 °F 61.0 °F 96% 29.60 in 4.0 mi ESE 15.0 mph - 0.10 in Rain Rain
5:33 AM 61.0 °F 60.1 °F 97% 29.64 in 8.0 mi SE 10.4 mph - 0.01 in Rain Light Rain
5:42 AM 61.0 °F 60.1 °F 97% 29.65 in 7.0 mi SE 10.4 mph - 0.01 in Rain Light Rain
5:53 AM 61.0 °F 60.1 °F 97% 29.64 in 8.0 mi ESE 11.5 mph - 0.02 in Rain Light Rain
6:53 AM 61.0 °F 60.1 °F 97% 29.67 in 6.0 mi SE 13.8 mph - 0.03 in Rain Light Rain
7:06 AM 61.0 °F 60.1 °F 97% 29.64 in 3.0 mi East 10.4 mph - 0.00 in Rain Light Rain
7:17 AM 60.1 °F 59.0 °F 96% 29.63 in 2.0 mi East 12.7 mph - 0.00 in Rain Light Rain
7:49 AM 57.2 °F 57.2 °F 100% 29.52 in 1.0 mi East 21.9 mph 26.5 mph 0.00 in   Overcast
7:53 AM 57.9 °F 57.0 °F 97% 29.51 in 1.0 mi East 20.7 mph - 0.00 in   Overcast
8:03 AM 57.9 °F 57.0 °F 97% 29.50 in 1.0 mi East 20.7 mph - N/A   Overcast
8:46 AM 57.0 °F 57.0 °F 100% 29.55 in 3.0 mi East 17.3 mph - N/A   Overcast
9:09 AM 57.0 °F 55.9 °F 96% 29.55 in 1.5 mi East 13.8 mph - N/A   Overcast
9:50 AM 57.2 °F 55.4 °F 94% 29.55 in 2.0 mi East 16.1 mph - N/A   Overcast
9:53 AM 57.9 °F 57.0 °F 97% 29.56 in 2.0 mi East 17.3 mph - N/A   Overcast
10:01 AM 57.9 °F 57.0 °F 97% 29.56 in 1.8 mi East 17.3 mph - N/A   Overcast
10:53 AM 60.1 °F 59.0 °F 96% 29.57 in 1.2 mi East 15.0 mph - N/A   Overcast
11:17 AM 61.0 °F 60.1 °F 97% 29.56 in 2.5 mi East 15.0 mph - N/A   Overcast
11:39 AM 64.0 °F 62.1 °F 93% 29.57 in 5.0 mi SE 13.8 mph - N/A   Overcast
11:48 AM 68.0 °F 62.6 °F 83% 29.57 in 7.0 mi South 20.7 mph 25.3 mph N/A   Mostly Cloudy
11:53 AM 69.1 °F 61.0 °F 75% 29.56 in 10.0 mi South 24.2 mph 29.9 mph N/A   Mostly Cloudy
12:00 PM 70.0 °F 60.1 °F 71% 29.57 in 10.0 mi South 17.3 mph - N/A   Scattered Clouds
12:53 PM 72.0 °F 60.1 °F 66% 29.54 in 10.0 mi South 24.2 mph - N/A   Mostly Cloudy
1:53 PM 70.0 °F 60.1 °F 71% 29.54 in 10.0 mi South 28.8 mph 38.0 mph N/A   Overcast
2:43 PM 69.1 °F 60.1 °F 73% 29.53 in 10.0 mi South 25.3 mph 32.2 mph N/A   Overcast
2:53 PM 69.1 °F 59.0 °F 70% 29.52 in 10.0 mi South 24.2 mph 34.5 mph N/A   Overcast
4:53 PM 71.1 °F 61.0 °F 70% 29.45 in 10.0 mi SSE 26.5 mph 38.0 mph N/A   Mostly Cloudy
5:03 PM 72.0 °F 60.1 °F 66% 29.46 in 10.0 mi South 23.0 mph 34.5 mph N/A   Scattered Clouds
5:53 PM 71.1 °F 61.0 °F 70% 29.47 in 10.0 mi SSE 23.0 mph 32.2 mph N/A   Clear
6:53 PM 66.9 °F 60.1 °F 79% 29.45 in 10.0 mi SSE 25.3 mph 32.2 mph N/A   Scattered Clouds
7:14 PM 66.9 °F 59.0 °F 76% 29.47 in 10.0 mi SSE 21.9 mph 33.4 mph N/A Thunderstorm Overcast
7:31 PM 60.1 °F 51.1 °F 72% 29.51 in 9.0 mi SSW 15.0 mph 34.5 mph 0.01 in Rain , Thunderstorm Light Rain
7:39 PM 57.0 °F 51.1 °F 81% 29.54 in 1.8 mi SW 13.8 mph 31.1 mph 0.25 in Rain , Thunderstorm Heavy Thunderstorms and Rain
7:53 PM 57.0 °F 52.0 °F 83% 29.53 in 2.0 mi SSW 10.4 mph - 0.43 in Rain , Thunderstorm Heavy Thunderstorms and Rain
8:15 PM 55.9 °F 53.1 °F 90% 29.53 in 4.0 mi South 9.2 mph - 0.14 in Rain , Thunderstorm Thunderstorms and Rain
8:34 PM 55.9 °F 54.0 °F 93% 29.53 in 9.0 mi SE 8.1 mph - 0.16 in Rain Light Rain
8:53 PM 55.9 °F 54.0 °F 93% 29.55 in 7.0 mi SE 6.9 mph - 0.18 in Rain Light Rain
10:53 PM 57.0 °F 55.0 °F 93% 29.56 in 8.0 mi SE 5.8 mph - 0.09 in Rain Light Rain
11:53 PM 55.9 °F 54.0 °F 93% 29.54 in 10.0 mi SE 5.8 mph - 0.01 in   Mostly Cloudy